| time (UTC) | temp F | wind direction | speed MPH | gust MPH | rain 1hr in | rain 24hr in | rain mn in | humidity % | barometer mb |
| 20260831210018 | 77 | 180 | 0.0 | 2.0 | 0.00 | 0.00 | 0.00 | 54 | 1018.6 |
| 20260831205019 | 78 | 314 | 2.0 | 4.0 | 0.00 | 0.00 | 0.00 | 51 | 1018.6 |
| 20260831204019 | 78 | 243 | 0.0 | 2.0 | 0.00 | 0.00 | 0.00 | 53 | 1018.7 |
| 20260831203019 | 78 | 135 | 1.0 | 3.0 | 0.00 | 0.00 | 0.00 | 50 | 1018.6 |
| 20260831202019 | 79 | 287 | 1.0 | 3.0 | 0.00 | 0.00 | 0.00 | 49 | 1018.5 |
| 20260831201019 | 78 | 326 | 1.0 | 5.0 | 0.00 | 0.00 | 0.00 | 49 | 1018.6 |
| 20260831200019 | 78 | 303 | 2.0 | 5.0 | 0.00 | 0.00 | 0.00 | 49 | 1018.7 |
| 20260831195017 | 79 | 320 | 2.0 | 4.0 | 0.00 | 0.00 | 0.00 | 47 | 1018.7 |
| 20260831194016 | 78 | 169 | 2.0 | 4.0 | 0.00 | 0.00 | 0.00 | 48 | 1018.9 |
| 20260831193019 | 78 | 302 | 1.0 | 4.0 | 0.00 | 0.00 | 0.00 | 48 | 1018.9 |
| 20260831192020 | 78 | 133 | 1.0 | 3.0 | 0.00 | 0.00 | 0.00 | 48 | 1019.0 |
| 20260831191020 | 77 | 102 | 2.0 | 5.0 | 0.00 | 0.00 | 0.00 | 48 | 1019.1 |
| 20260831190017 | 78 | 301 | 1.0 | 4.0 | 0.00 | 0.01 | 0.00 | 47 | 1019.1 |
| 20260831185017 | 79 | 128 | 1.0 | 3.0 | 0.00 | 0.04 | 0.00 | 46 | 1019.1 |
| 20260831184017 | 79 | 99 | 1.0 | 3.0 | 0.00 | 0.05 | 0.00 | 43 | 1019.2 |
| 20260831183020 | 78 | 284 | 1.0 | 2.0 | 0.00 | 0.05 | 0.00 | 47 | 1019.5 |
| 20260831182020 | 78 | 314 | 1.0 | 5.0 | 0.00 | 0.05 | 0.00 | 46 | 1019.5 |
| 20260831181017 | 78 | 166 | 1.0 | 4.0 | 0.00 | 0.05 | 0.00 | 46 | 1019.6 |
| 20260831180018 | 77 | 265 | 1.0 | 2.0 | 0.00 | 0.05 | 0.00 | 46 | 1019.5 |
| 20260831175018 | 77 | 123 | 2.0 | 4.0 | 0.00 | 0.05 | 0.00 | 46 | 1019.5 |
| 20260831174018 | 77 | 291 | 1.0 | 3.0 | 0.00 | 0.05 | 0.00 | 47 | 1019.6 |
| 20260831173038 | 78 | 109 | 2.0 | 4.0 | 0.00 | 0.05 | 0.00 | 45 | 1019.8 |
| 20260831172039 | 79 | 174 | 2.0 | 3.0 | 0.00 | 0.05 | 0.00 | 48 | 1019.9 |
| 20260831171038 | 76 | 53 | 1.0 | 4.0 | 0.00 | 0.05 | 0.00 | 47 | 1019.9 |
| 20260831170019 | 76 | 125 | 2.0 | 4.0 | 0.00 | 0.05 | 0.00 | 47 | 1020.0 |
| 20260831165019 | 76 | 239 | 1.0 | 3.0 | 0.00 | 0.05 | 0.00 | 47 | 1020.2 |
| 20260831164016 | 76 | 160 | 2.0 | 6.0 | 0.00 | 0.05 | 0.00 | 47 | 1020.2 |
| 20260831163059 | 75 | 317 | 1.0 | 4.0 | 0.00 | 0.05 | 0.00 | 48 | 1020.3 |
| 20260831161020 | 77 | 123 | 2.0 | 4.0 | 0.00 | 0.05 | 0.00 | 47 | 1020.4 |
| 20260831160019 | 75 | 129 | 1.0 | 4.0 | 0.00 | 0.05 | 0.00 | 49 | 1020.6 |
| 20260831155019 | 75 | 294 | 1.0 | 4.0 | 0.00 | 0.05 | 0.00 | 51 | 1020.6 |
| 20260831154037 | 76 | 270 | 2.0 | 5.0 | 0.00 | 0.05 | 0.00 | 49 | 1020.7 |
| 20260831153020 | 75 | 308 | 1.0 | 3.0 | 0.00 | 0.05 | 0.00 | 51 | 1020.8 |
| 20260831152019 | 73 | 249 | 1.0 | 3.0 | 0.00 | 0.05 | 0.00 | 52 | 1020.8 |
| 20260831151017 | 74 | 262 | 2.0 | 4.0 | 0.00 | 0.05 | 0.00 | 50 | 1020.9 |
| 20260831150017 | 73 | 269 | 1.0 | 4.0 | 0.00 | 0.05 | 0.00 | 52 | 1020.9 |
| 20260831145017 | 73 | 290 | 1.0 | 4.0 | 0.00 | 0.05 | 0.00 | 52 | 1020.9 |
| 20260831144017 | 73 | 348 | 1.0 | 3.0 | 0.00 | 0.05 | 0.00 | 52 | 1021.0 |
| 20260831143020 | 73 | 80 | 2.0 | 5.0 | 0.00 | 0.05 | 0.00 | 52 | 1021.0 |
| 20260831142018 | 72 | 164 | 1.0 | 3.0 | 0.00 | 0.05 | 0.00 | 54 | 1021.0 |
| 20260831141018 | 72 | 129 | 1.0 | 4.0 | 0.00 | 0.05 | 0.00 | 54 | 1020.8 |
| 20260831140018 | 71 | 135 | 2.0 | 6.0 | 0.00 | 0.05 | 0.00 | 54 | 1020.8 |
| 20260831135037 | 70 | 95 | 1.0 | 4.0 | 0.00 | 0.05 | 0.00 | 59 | 1020.9 |
| 20260831134040 | 70 | 130 | 2.0 | 5.0 | 0.00 | 0.05 | 0.00 | 60 | 1020.9 |
| 20260831133018 | 69 | 113 | 1.0 | 3.0 | 0.00 | 0.05 | 0.00 | 62 | 1020.8 |
| 20260831132018 | 68 | 111 | 1.0 | 3.0 | 0.00 | 0.05 | 0.00 | 63 | 1020.8 |
| 20260831131019 | 67 | 110 | 1.0 | 3.0 | 0.00 | 0.05 | 0.00 | 67 | 1020.8 |
| 20260831130028 | 66 | 164 | 2.0 | 4.0 | 0.00 | 0.05 | 0.00 | 71 | 1020.7 |
| 20260831125028 | 65 | 320 | 1.0 | 2.0 | 0.00 | 0.05 | 0.00 | 74 | 1020.7 |
| 20260831124028 | 64 | 137 | 1.0 | 2.0 | 0.00 | 0.05 | 0.00 | 76 | 1020.7 |
| 20260831123028 | 62 | 122 | 1.0 | 3.0 | 0.00 | 0.05 | 0.00 | 86 | 1020.5 |
| 20260831122028 | 61 | 131 | 0.0 | 1.0 | 0.00 | 0.05 | 0.00 | 97 | 1020.6 |
| 20260831121028 | 60 | 134 | 0.0 | 0.0 | 0.00 | 0.05 | 0.00 | 97 | 1020.5 |
| 20260831120048 | 60 | 128 | 0.0 | 1.0 | 0.00 | 0.05 | 0.00 | 97 | 1020.5 |
| 20260831115028 | 59 | 133 | 0.0 | 1.0 | 0.00 | 0.05 | 0.00 | 97 | 1020.4 |
| 20260831114048 | 58 | 128 | 0.0 | 2.0 | 0.00 | 0.05 | 0.00 | 97 | 1020.3 |
| 20260831113028 | 58 | 107 | 0.0 | 1.0 | 0.00 | 0.05 | 0.00 | 97 | 1020.3 |
| 20260831112029 | 57 | 0.0 | 0.0 | 0.00 | 0.05 | 0.00 | 97 | 1020.1 | |
| 20260831111029 | 57 | 126 | 0.0 | 0.0 | 0.00 | 0.05 | 0.00 | 97 | 1020.1 |
| 20260831110029 | 57 | 114 | 0.0 | 0.0 | 0.00 | 0.05 | 0.00 | 97 | 1019.9 |
| 20260831105049 | 57 | 106 | 0.0 | 1.0 | 0.00 | 0.05 | 0.00 | 97 | 1019.8 |
| 20260831104210 | 57 | 97 | 0.0 | 1.0 | 0.00 | 0.05 | 0.00 | 97 | 1019.8 |
| 20260831103030 | 58 | 126 | 0.0 | 1.0 | 0.00 | 0.05 | 0.00 | 97 | 1019.8 |
| 20260831102109 | 57 | 133 | 0.0 | 1.0 | 0.00 | 0.05 | 0.00 | 97 | 1019.6 |
| 20260831101031 | 57 | 122 | 0.0 | 1.0 | 0.00 | 0.05 | 0.00 | 97 | 1019.5 |
| 20260831100030 | 58 | 102 | 0.0 | 1.0 | 0.00 | 0.05 | 0.00 | 96 | 1019.4 |
| 20260831095030 | 58 | 122 | 0.0 | 1.0 | 0.00 | 0.05 | 0.00 | 96 | 1019.3 |
| 20260831094030 | 58 | 200 | 0.0 | 1.0 | 0.00 | 0.05 | 0.00 | 96 | 1019.2 |
| 20260831093030 | 58 | 30 | 0.0 | 0.0 | 0.00 | 0.05 | 0.00 | 96 | 1019.1 |
| 20260831092113 | 59 | 155 | 0.0 | 1.0 | 0.00 | 0.05 | 0.00 | 96 | 1019.0 |
| 20260831091031 | 59 | 142 | 0.0 | 1.0 | 0.00 | 0.05 | 0.00 | 96 | 1018.9 |
| 20260831090031 | 59 | 0.0 | 0.0 | 0.00 | 0.05 | 0.00 | 96 | 1018.8 | |
| 20260831085031 | 59 | 73 | 0.0 | 0.0 | 0.00 | 0.05 | 0.00 | 96 | 1018.7 |
| 20260831084031 | 60 | 126 | 0.0 | 1.0 | 0.00 | 0.05 | 0.00 | 96 | 1018.6 |
| 20260831083031 | 60 | 89 | 0.0 | 1.0 | 0.00 | 0.05 | 0.00 | 95 | 1018.5 |
| 20260831082031 | 60 | 212 | 0.0 | 1.0 | 0.00 | 0.05 | 0.00 | 95 | 1018.5 |
| 20260831081031 | 60 | 152 | 0.0 | 1.0 | 0.00 | 0.05 | 0.00 | 95 | 1018.4 |
| 20260831080056 | 61 | 138 | 0.0 | 1.0 | 0.00 | 0.05 | 0.00 | 95 | 1018.3 |
| 20260831075016 | 61 | 206 | 0.0 | 1.0 | 0.00 | 0.05 | 0.00 | 95 | 1018.1 |
| 20260831074017 | 61 | 117 | 0.0 | 1.0 | 0.00 | 0.05 | 0.00 | 95 | 1018.1 |
| 20260831073052 | 61 | 225 | 0.0 | 1.0 | 0.00 | 0.05 | 0.00 | 94 | 1018.0 |
| 20260831072032 | 61 | 110 | 0.0 | 1.0 | 0.00 | 0.05 | 0.00 | 94 | 1017.9 |
| 20260831071032 | 61 | 221 | 0.0 | 1.0 | 0.00 | 0.05 | 0.00 | 94 | 1017.9 |
| 20260831070032 | 61 | 140 | 0.0 | 1.0 | 0.00 | 0.05 | 0.00 | 94 | 1018.0 |
| 20260831065017 | 62 | 133 | 0.0 | 1.0 | 0.00 | 0.05 | 0.00 | 93 | 1018.1 |
| 20260831064017 | 62 | 155 | 0.0 | 1.0 | 0.00 | 0.05 | 0.00 | 93 | 1018.1 |
| 20260831063118 | 62 | 116 | 0.0 | 1.0 | 0.00 | 0.05 | 0.00 | 93 | 1018.0 |
| 20260831062018 | 62 | 127 | 0.0 | 1.0 | 0.00 | 0.05 | 0.00 | 93 | 1018.0 |
| 20260831061018 | 63 | 129 | 0.0 | 1.0 | 0.00 | 0.05 | 0.00 | 93 | 1017.9 |
| 20260831060016 | 63 | 137 | 0.0 | 1.0 | 0.00 | 0.05 | 0.00 | 93 | 1017.8 |
| 20260831055057 | 63 | 122 | 0.0 | 1.0 | 0.00 | 0.05 | 0.00 | 92 | 1017.7 |
| 20260831054017 | 64 | 81 | 0.0 | 1.0 | 0.00 | 0.05 | 0.00 | 92 | 1017.7 |
| 20260831053017 | 64 | 144 | 0.0 | 1.0 | 0.00 | 0.05 | 0.00 | 91 | 1017.7 |
| 20260831052038 | 65 | 204 | 0.0 | 1.0 | 0.00 | 0.05 | 0.00 | 89 | 1017.6 |
| 20260831051019 | 65 | 93 | 0.0 | 1.0 | 0.00 | 0.05 | 0.00 | 87 | 1017.4 |
| 20260831050019 | 66 | 115 | 0.0 | 1.0 | 0.00 | 0.05 | 0.00 | 86 | 1017.4 |
| 20260831045038 | 66 | 163 | 0.0 | 1.0 | 0.00 | 0.05 | 0.00 | 85 | 1017.5 |
| 20260831044017 | 67 | 124 | 0.0 | 1.0 | 0.00 | 0.05 | 0.00 | 85 | 1017.3 |
| 20260831043018 | 67 | 126 | 0.0 | 1.0 | 0.00 | 0.05 | 0.00 | 84 | 1017.2 |
| 20260831042018 | 68 | 203 | 0.0 | 1.0 | 0.00 | 0.05 | 0.00 | 83 | 1017.2 |
| 20260831040018 | 69 | 0.0 | 0.0 | 0.00 | 0.05 | 0.00 | 80 | 1017.2 | |
| 20260831035018 | 70 | 83 | 0.0 | 1.0 | 0.00 | 0.05 | 0.05 | 81 | 1017.1 |
| 20260831034018 | 70 | 181 | 1.0 | 2.0 | 0.00 | 0.05 | 0.05 | 80 | 1017.1 |
| 20260831033018 | 71 | 116 | 0.0 | 1.0 | 0.00 | 0.05 | 0.05 | 78 | 1017.1 |
| 20260831032018 | 71 | 95 | 0.0 | 1.0 | 0.00 | 0.05 | 0.05 | 79 | 1017.1 |
| 20260831031019 | 71 | 126 | 0.0 | 1.0 | 0.00 | 0.05 | 0.05 | 78 | 1017.0 |
| 20260831030019 | 70 | 127 | 0.0 | 1.0 | 0.00 | 0.05 | 0.05 | 81 | 1017.0 |
| 20260831025019 | 70 | 124 | 0.0 | 2.0 | 0.00 | 0.05 | 0.05 | 82 | 1017.0 |
| 20260831024019 | 70 | 89 | 0.0 | 2.0 | 0.00 | 0.05 | 0.05 | 82 | 1017.1 |
| 20260831023019 | 71 | 102 | 0.0 | 1.0 | 0.00 | 0.05 | 0.05 | 81 | 1017.1 |
| 20260831022020 | 71 | 92 | 0.0 | 1.0 | 0.00 | 0.05 | 0.05 | 80 | 1017.1 |
| 20260831021019 | 71 | 128 | 0.0 | 1.0 | 0.00 | 0.05 | 0.05 | 79 | 1017.1 |
| 20260831020020 | 71 | 107 | 1.0 | 2.0 | 0.00 | 0.05 | 0.05 | 77 | 1017.1 |
| 20260831015019 | 72 | 122 | 0.0 | 1.0 | 0.00 | 0.05 | 0.05 | 77 | 1016.9 |
| 20260831014020 | 72 | 108 | 0.0 | 1.0 | 0.00 | 0.05 | 0.05 | 76 | 1016.9 |
| 20260831013020 | 72 | 0.0 | 0.0 | 0.00 | 0.05 | 0.05 | 75 | 1016.8 | |
| 20260831012020 | 73 | 131 | 0.0 | 1.0 | 0.00 | 0.05 | 0.05 | 75 | 1016.7 |
| 20260831011040 | 73 | 0.0 | 0.0 | 0.00 | 0.05 | 0.05 | 72 | 1016.8 | |
| 20260831010020 | 73 | 76 | 0.0 | 0.0 | 0.00 | 0.05 | 0.05 | 70 | 1016.7 |
| 20260831005041 | 74 | 79 | 0.0 | 1.0 | 0.00 | 0.05 | 0.05 | 69 | 1016.6 |
| 20260831004021 | 74 | 253 | 0.0 | 1.0 | 0.00 | 0.05 | 0.05 | 69 | 1016.5 |
| 20260831003041 | 74 | 338 | 1.0 | 2.0 | 0.00 | 0.05 | 0.05 | 68 | 1016.4 |
| 20260831002041 | 74 | 355 | 1.0 | 2.0 | 0.00 | 0.05 | 0.05 | 68 | 1016.3 |
| 20260831001021 | 74 | 189 | 1.0 | 3.0 | 0.00 | 0.05 | 0.05 | 67 | 1016.2 |
| 20260831000021 | 74 | 289 | 1.0 | 5.0 | 0.00 | 0.05 | 0.05 | 66 | 1016.1 |
| 20260830235017 | 75 | 357 | 1.0 | 6.0 | 0.00 | 0.05 | 0.05 | 66 | 1016.0 |
| 20260830234018 | 75 | 356 | 1.0 | 3.0 | 0.00 | 0.05 | 0.05 | 65 | 1015.9 |
| 20260830233021 | 75 | 327 | 1.0 | 4.0 | 0.00 | 0.05 | 0.05 | 64 | 1015.9 |
| 20260830232018 | 75 | 29 | 1.0 | 3.0 | 0.00 | 0.05 | 0.05 | 63 | 1015.9 |
| 20260830231038 | 75 | 89 | 1.0 | 4.0 | 0.00 | 0.05 | 0.05 | 62 | 1015.9 |
| 20260830230018 | 76 | 319 | 1.0 | 3.0 | 0.00 | 0.05 | 0.05 | 61 | 1016.0 |
| 20260830225018 | 76 | 262 | 1.0 | 4.0 | 0.00 | 0.05 | 0.05 | 60 | 1016.2 |
| 20260830224018 | 76 | 87 | 1.0 | 5.0 | 0.00 | 0.05 | 0.05 | 59 | 1016.1 |
| 20260830223058 | 76 | 33 | 1.0 | 3.0 | 0.00 | 0.05 | 0.05 | 58 | 1016.3 |
| 20260830222038 | 77 | 300 | 1.0 | 2.0 | 0.00 | 0.05 | 0.05 | 57 | 1016.4 |
| 20260830221018 | 77 | 301 | 1.0 | 4.0 | 0.00 | 0.05 | 0.05 | 57 | 1016.4 |
| 20260830220019 | 77 | 276 | 0.0 | 3.0 | 0.00 | 0.05 | 0.05 | 56 | 1016.3 |
| 20260830215039 | 77 | 186 | 1.0 | 3.0 | 0.00 | 0.05 | 0.05 | 56 | 1016.3 |
| 20260830214038 | 77 | 63 | 1.0 | 4.0 | 0.00 | 0.05 | 0.05 | 55 | 1016.3 |
| 20260830213019 | 77 | 319 | 1.0 | 4.0 | 0.00 | 0.05 | 0.05 | 56 | 1016.5 |
| 20260830212039 | 78 | 351 | 1.0 | 3.0 | 0.00 | 0.05 | 0.05 | 56 | 1016.6 |
| 20260830211019 | 78 | 308 | 1.0 | 5.0 | 0.00 | 0.05 | 0.05 | 57 | 1016.6 |